When you browse on this site, cookies collect data to enhance your experience and personalize the content and advertising you see.
Visit our Privacy Policy to learn more. By continuing to use the site, you agree to this use of cookies and data.
  • In Latvia
  • List of Countries
  • For 7 days
  • Water Temperature
  • Weather Map
  • Weather Widgets
  • user-avatar
    Login

    Hourly Weather Tavricheskoe

    Today, 4 April, Saturday

    Time Temperature Precipitation Wind Pressure Humidity
    00:00 +5°C° 0 mm 1 mps 746 mmHg 72%
    01:00 +4°C° 0 mm 1 mps 746 mmHg 73%
    02:00 +4°C° 0 mm 1 mps 746 mmHg 73%
    03:00 +4°C° 0 mm 1 mps 746 mmHg 74%
    04:00 +4°C° 0 mm 1 mps 746 mmHg 75%
    05:00 +3°C° 0 mm 0 mps 747 mmHg 76%
    06:00 +3°C° 0 mm 0 mps 746 mmHg 77%
    07:00 +4°C° 0 mm 0 mps 746 mmHg 78%
    08:00 +5°C° 0 mm 0 mps 746 mmHg 79%
    09:00 +7°C° 0 mm 1 mps 746 mmHg 76%
    10:00 +8°C° 0 mm 1 mps 746 mmHg 74%
    11:00 +9°C° 0 mm 1 mps 746 mmHg 71%
    12:00 +10°C° 0 mm 1 mps 746 mmHg 74%
    13:00 +9°C° 0 mm 2 mps 745 mmHg 77%
    14:00 +9°C° 0 mm 2 mps 745 mmHg 79%
    15:00 +8°C° 0 mm 2 mps 745 mmHg 85%
    16:00 +8°C° 0 mm 1 mps 745 mmHg 90%
    17:00 +7°C° 0 mm 1 mps 745 mmHg 95%
    18:00 +7°C° 0 mm 1 mps 745 mmHg 96%
    19:00 +6°C° 0 mm 1 mps 745 mmHg 96%
    20:00 +5°C° 0 mm 1 mps 745 mmHg 97%
    21:00 +4°C° 0 mm 0 mps 745 mmHg 97%
    22:00 +4°C° 0 mm 0 mps 745 mmHg 97%
    23:00 +4°C° 0 mm 0 mps 744 mmHg 97%

    Tomorrow, 5 April, Sunday

    Time Temperature Precipitation Wind Pressure Humidity
    00:00 +4°C° 0 mm 0 mps 744 mmHg 97%
    01:00 +4°C° 0 mm 0 mps 743 mmHg 97%
    02:00 +4°C° 0 mm 1 mps 743 mmHg 97%
    03:00 +3°C° 0 mm 0 mps 743 mmHg 96%
    04:00 +3°C° 0 mm 0 mps 743 mmHg 96%
    05:00 +3°C° 0 mm 0 mps 743 mmHg 95%
    06:00 +4°C° 0 mm 0 mps 743 mmHg 91%
    07:00 +5°C° 0 mm 0 mps 742 mmHg 87%
    08:00 +6°C° 0 mm 0 mps 742 mmHg 83%
    09:00 +9°C° 0 mm 1 mps 742 mmHg 77%
    10:00 +11°C° 0 mm 1 mps 741 mmHg 72%
    11:00 +12°C° 0 mm 1 mps 741 mmHg 66%
    12:00 +13°C° 0 mm 1 mps 740 mmHg 63%
    13:00 +14°C° 0 mm 1 mps 740 mmHg 60%
    14:00 +15°C° 0 mm 1 mps 739 mmHg 56%
    15:00 +15°C° 0 mm 1 mps 739 mmHg 59%
    16:00 +14°C° 0 mm 1 mps 739 mmHg 62%
    17:00 +14°C° 0 mm 1 mps 739 mmHg 66%
    18:00 +13°C° 0 mm 1 mps 739 mmHg 67%
    19:00 +11°C° 0 mm 1 mps 739 mmHg 68%
    20:00 +10°C° 0 mm 1 mps 738 mmHg 69%
    21:00 +10°C° 0 mm 1 mps 738 mmHg 69%
    22:00 +9°C° 0 mm 1 mps 738 mmHg 69%
    23:00 +8°C° 0 mm 2 mps 738 mmHg 69%

    Day after tomorrow, 6 April, Monday

    Time Temperature Precipitation Wind Pressure Humidity
    00:00 +7°C° 0 mm 2 mps 738 mmHg 68%
    01:00 +7°C° 0 mm 2 mps 737 mmHg 67%
    02:00 +7°C° 0 mm 2 mps 737 mmHg 66%
    03:00 +7°C° 0 mm 2 mps 737 mmHg 65%
    04:00 +6°C° 0 mm 2 mps 737 mmHg 64%
    05:00 +6°C° 0 mm 2 mps 738 mmHg 63%
    06:00 +8°C° 0 mm 2 mps 738 mmHg 60%
    07:00 +9°C° 0 mm 2 mps 738 mmHg 57%
    08:00 +10°C° 0 mm 2 mps 738 mmHg 54%
    09:00 +13°C° 0 mm 2 mps 738 mmHg 50%
    10:00 +15°C° 0 mm 2 mps 738 mmHg 46%
    11:00 +16°C° 0 mm 2 mps 738 mmHg 42%
    12:00 +17°C° 0 mm 2 mps 738 mmHg 40%
    13:00 +19°C° 0 mm 1 mps 738 mmHg 39%
    14:00 +19°C° 0 mm 1 mps 738 mmHg 37%
    15:00 +19°C° 0 mm 1 mps 738 mmHg 42%
    16:00 +18°C° 0 mm 1 mps 738 mmHg 46%
    17:00 +18°C° 0 mm 1 mps 738 mmHg 50%
    18:00 +16°C° 0 mm 1 mps 738 mmHg 53%
    19:00 +14°C° 0 mm 1 mps 738 mmHg 55%
    20:00 +13°C° 0 mm 2 mps 739 mmHg 58%
    21:00 +12°C° 0 mm 2 mps 738 mmHg 59%
    22:00 +12°C° 0 mm 2 mps 738 mmHg 59%
    23:00 +10°C° 0 mm 2 mps 738 mmHg 60%

    7 April, Tuesday

    Time Temperature Precipitation Wind Pressure Humidity
    00:00 +10°C° 0 mm 2 mps 738 mmHg 61%
    01:00 +9°C° 0 mm 2 mps 737 mmHg 63%
    02:00 +9°C° 0 mm 2 mps 737 mmHg 64%
    03:00 +9°C° 0 mm 2 mps 737 mmHg 63%
    04:00 +9°C° 0 mm 2 mps 737 mmHg 62%
    05:00 +8°C° 0 mm 2 mps 737 mmHg 61%
    06:00 +9°C° 0 mm 2 mps 737 mmHg 61%
    07:00 +10°C° 0 mm 2 mps 737 mmHg 60%
    08:00 +12°C° 0 mm 2 mps 737 mmHg 60%
    09:00 +13°C° 0 mm 3 mps 736 mmHg 58%
    10:00 +14°C° 0 mm 3 mps 736 mmHg 56%
    11:00 +17°C° 0 mm 3 mps 736 mmHg 53%
    12:00 +18°C° 0 mm 4 mps 735 mmHg 50%
    13:00 +19°C° 0 mm 5 mps 735 mmHg 46%
    14:00 +20°C° 0 mm 5 mps 735 mmHg 43%
    15:00 +19°C° 0 mm 5 mps 735 mmHg 42%
    16:00 +19°C° 0 mm 5 mps 735 mmHg 42%
    17:00 +18°C° 0 mm 4 mps 735 mmHg 41%
    18:00 +17°C° 0 mm 4 mps 735 mmHg 44%
    19:00 +14°C° 0 mm 3 mps 735 mmHg 47%
    20:00 +13°C° 0 mm 3 mps 735 mmHg 50%
    21:00 +14°C° 0 mm 2 mps 735 mmHg 50%
    22:00 +13°C° 0 mm 2 mps 736 mmHg 51%
    23:00 +13°C° 0 mm 2 mps 736 mmHg 51%

    8 April, Wednesday

    Time Temperature Precipitation Wind Pressure Humidity
    00:00 +11°C° 0 mm 3 mps 736 mmHg 58%
    01:00 +10°C° 0 mm 3 mps 737 mmHg 64%
    02:00 +8°C° 0 mm 4 mps 737 mmHg 71%
    03:00 +7°C° 0.1 mm 4 mps 737 mmHg 75%
    04:00 +7°C° 0.1 mm 3 mps 738 mmHg 79%
    05:00 +5°C° 0.1 mm 3 mps 738 mmHg 84%
    06:00 +7°C° 0 mm 3 mps 738 mmHg 82%
    07:00 +7°C° 0 mm 2 mps 738 mmHg 80%
    08:00 +8°C° 0 mm 1 mps 737 mmHg 78%
    09:00 +9°C° 0 mm 2 mps 737 mmHg 74%
    10:00 +12°C° 0 mm 2 mps 737 mmHg 69%
    11:00 +13°C° 0 mm 2 mps 736 mmHg 64%
    12:00 +11°C° 0 mm 3 mps 737 mmHg 67%
    13:00 +10°C° 0 mm 4 mps 737 mmHg 71%
    14:00 +9°C° 0 mm 5 mps 737 mmHg 74%
    15:00 +8°C° 0.6 mm 5 mps 738 mmHg 76%
    16:00 +7°C° 0.6 mm 4 mps 738 mmHg 77%
    17:00 +7°C° 0.6 mm 4 mps 739 mmHg 79%
    18:00 +7°C° 0.4 mm 4 mps 739 mmHg 80%
    19:00 +7°C° 0.4 mm 3 mps 740 mmHg 81%
    20:00 +7°C° 0.4 mm 3 mps 741 mmHg 82%
    21:00 +7°C° 0.1 mm 3 mps 741 mmHg 78%
    22:00 +7°C° 0.1 mm 3 mps 742 mmHg 74%
    23:00 +5°C° 0.1 mm 3 mps 742 mmHg 69%

    9 April, Thursday

    Time Temperature Precipitation Wind Pressure Humidity
    00:00 +5°C° 0 mm 3 mps 743 mmHg 70%
    01:00 +4°C° 0 mm 3 mps 743 mmHg 70%
    02:00 +5°C° 0 mm 2 mps 743 mmHg 70%
    03:00 +5°C° 0 mm 2 mps 744 mmHg 71%
    04:00 +4°C° 0 mm 2 mps 744 mmHg 71%
    05:00 +4°C° 0 mm 2 mps 745 mmHg 72%
    06:00 +5°C° 0 mm 2 mps 745 mmHg 67%
    07:00 +5°C° 0 mm 2 mps 745 mmHg 62%
    08:00 +6°C° 0 mm 2 mps 745 mmHg 56%
    09:00 +7°C° 0 mm 3 mps 745 mmHg 52%
    10:00 +8°C° 0 mm 3 mps 745 mmHg 48%
    11:00 +9°C° 0 mm 3 mps 745 mmHg 43%
    12:00 +9°C° 0 mm 3 mps 745 mmHg 42%
    13:00 +9°C° 0 mm 3 mps 745 mmHg 40%
    14:00 +9°C° 0 mm 3 mps 745 mmHg 39%
    15:00 +9°C° 0 mm 3 mps 744 mmHg 39%
    16:00 +9°C° 0 mm 3 mps 744 mmHg 39%
    17:00 +9°C° 0 mm 2 mps 744 mmHg 39%
    18:00 +9°C° 0 mm 1 mps 744 mmHg 42%
    19:00 +8°C° 0 mm 1 mps 745 mmHg 45%
    20:00 +7°C° 0 mm 0 mps 745 mmHg 48%
    21:00 +6°C° 0 mm 0 mps 745 mmHg 49%
    22:00 +7°C° 0 mm 1 mps 745 mmHg 51%
    23:00 +6°C° 0 mm 1 mps 745 mmHg 53%
    Show more